ROMMA est une association bénévole à but non lucratif. Votre soutien est indispensable : ADHERER à ROMMA ou FAIRE un DON

Le Versoud - (38, Isère)

Vallée du Grésivaudan (220 m)   Longitude: 05° 51' 44" E   Latitude: 45° 13' 06" N Station partenaire n°6
 

Détail journalier du     <<     >>

Température Humidité Pression Vent Dir Rafale Dir. rafale Ensol.
Heure (°C) (%) (hPa) (km/h) (km/h) (min)
01:00 10.689101600---0
02:00 9.991101600---0
03:00 9.792101600---0
04:00 9.193101600---0
05:00 8.994101700---0
06:00 8.993101600---0
07:00 8.693101600---0
08:00 9.393101700---0
09:00 10.193101700---0
10:00 13.282101700---20
11:00 14.875101700---25
12:00 16.071101600---60
13:00 17.266101600---45
14:00 18.458101500---20
15:00 18.759101400---0
16:00 17.967101400---0
17:00 17.673101400---0
18:00 16.478101400---0
19:00 15.188101402N0
20:00 14.291101400---0
21:00 13.794101400---0
22:00 13.594101300---0
23:00 13.69210141---16SSE0
minuit 12.8931015016NE0

Graphique du 06-10-2019

 

Serveur OMMA